Tracking 17145 objects as of 29-May-2015
HD Live streaming from Space Station

H-1 R/B(1)

Track H-1 R/B(1) now!
10-day predictions
H-1 R/B(1) is classified as:


NORAD ID: 20230
Int'l Code: 1989-070B
Perigee: 193.3 km
Apogee: 9,239.2 km
Inclination: 28.3 °
Period: 193.6 minutes
Semi major axis: 11087 km
RCS: 2.9914 m2 (large)
Launch date: September 5, 1989
Source: Japan (JPN)

Note: This is a ROCKET BODY
Your satellite tracking list
Your tracking list is empty





NASA's NSSDC Master Catalog

Two Line Element Set (TLE):
1 20230U 89070B   15149.52148935  .00116513 -46353-6  91153-3 0  9995
2 20230 028.2710 336.2255 4079417 322.7962 028.5485 07.43644702444302

Source of the keplerian elements: AFSPC

N2YO: 406